#timestamp,LO_Frequency,Hit,StdDev 
1635976815.2,286046999.1,P
1635976835.0,286046997.9,N
1635976835.9,286046997.9,N
1635976855.8,286046995.9,Y
1635976875.6,286046997.4,P
1635976895.4,286046995.1,P
1635976915.3,286046997.0,N
1635976935.1,286046997.6,N
1635976955.9,286046999.6,N
1635976975.7,286046999.1,N
1635976995.5,286046998.5,N
1635977015.4,286046998.3,N
1635977035.2,286047000.8,N
1635977055.0,286047000.3,N
1635977055.9,286047000.3,N
1635977075.8,286047001.0,N
1635977095.6,286046999.9,N
1635977115.5,286047000.2,N
1635977135.3,286047000.5,N
1635977155.1,286047000.1,N
1635977175.9,286047000.0,N
1635977195.7,286046998.9,N
1635977215.5,286046999.3,N
1635977235.4,286046997.4,N
1635977255.2,286046996.9,N
1635977275.1,286046996.5,N
1635977276.0,286046996.5,N
1635977295.8,286046997.1,N
1635977315.6,286046997.1,N
1635977335.5,286046997.1,N
1635977355.3,286046997.3,N
1635977375.1,286046996.8,N
1635977395.9,286046995.3,N
1635977415.7,286046997.9,N
1635977435.5,286046997.5,N
1635977455.4,286046996.5,N
1635977475.2,286046997.6,N
1635977495.1,286046997.4,N
1635977496.0,286046997.4,N
1635977515.8,286046997.6,N
1635977535.6,286046995.4,N
1635977555.5,286046995.1,Y
1635977575.3,286046998.5,P
1635977595.2,286046998.6,P
1635977615.9,286046998.6,P
1635977635.7,286047000.1,N
1635977655.6,286047001.3,N
1635977675.4,286047004.2,Y
1635977695.3,286047005.5,P
1635977715.1,286047005.4,N
1635977716.0,286047005.4,N
1635977735.8,286047005.2,N
1635977755.7,286047003.9,N
1635977775.5,286047003.2,N
1635977795.3,286047005.8,N
1635977815.2,286047005.8,N
1635977835.0,286047004.2,N
1635977835.9,286047004.2,N
1635977855.8,286047002.5,N
1635977875.6,286047000.6,N
1635977895.4,286047000.6,N
1635977915.3,286046998.5,N
1635977935.1,286047000.8,N
1635977955.9,286047000.6,N
1635977975.7,286047002.4,N
1635977995.5,286047002.1,N
1635978015.4,286047000.1,N
1635978035.2,286047002.5,N
1635978055.0,286047002.5,N
1635978056.0,286047002.5,N
1635978075.8,286047001.6,N
1635978095.6,286047004.0,N
1635978115.5,286047001.5,N
1635978135.3,286047000.1,N
1635978155.1,286047003.9,N
1635978175.9,286047004.4,N
1635978195.7,286047001.4,N
1635978215.6,286047002.1,N
1635978235.4,286047002.8,N
1635978255.2,286046999.7,N
1635978275.1,286047002.7,N
1635978276.0,286047002.7,N
1635978295.8,286047000.6,N
1635978315.6,286046999.8,N
1635978335.5,286046999.8,N
1635978355.3,286047000.4,N
1635978375.2,286047000.3,N
1635978395.9,286047000.4,N
1635978415.7,286046999.9,N
1635978435.6,286046999.9,N
1635978455.4,286047000.5,N
1635978475.2,286046999.9,N
1635978495.1,286047001.1,N
1635978496.0,286047001.1,N
1635978515.8,286046998.1,N
1635978535.7,286047000.8,N
1635978555.5,286046998.2,N
1635978575.3,286046999.9,N
1635978595.2,286046999.9,N
1635978615.0,286047000.4,N
1635978615.9,286047000.4,N
1635978635.7,286047000.6,N
1635978655.6,286047000.5,N
1635978675.4,286047000.0,N
1635978695.3,286047001.0,N
1635978715.1,286047001.2,N
1635978716.0,286047001.2,N
1635978735.8,286047000.5,N
1635978755.7,286047000.3,N
1635978775.5,286046998.3,N
1635978795.4,286046996.8,Y
1635978815.2,286046996.5,P
1635978835.0,286046999.5,N
1635978835.9,286046999.5,N
1635978855.8,286046999.5,N
1635978875.6,286046997.5,N
1635978895.4,286046999.6,N
1635978915.3,286046997.7,N
1635978935.1,286046997.8,N
1635978955.9,286046994.9,Y
1635978975.7,286046999.2,P
1635978995.5,286046998.4,P
1635979015.4,286046999.4,N
1635979035.2,286046998.9,N
1635979055.0,286046998.9,Y
1635979055.9,286046998.9,P
1635979075.8,286046998.5,P
1635979095.6,286047000.9,P
1635979115.5,286047000.2,N
1635979135.3,286047002.8,Y
1635979155.1,286047002.4,P
1635979175.9,286046999.7,N
1635979195.7,286047000.3,N
1635979215.6,286047002.7,N
1635979235.4,286046999.7,N
1635979255.2,286047000.8,N
1635979275.1,286047001.0,N
1635979276.0,286047001.0,N
1635979295.8,286047002.4,N
1635979315.6,286047002.8,N
1635979335.5,286046999.9,N
1635979355.3,286047000.0,N
1635979375.2,286047000.1,N
1635979395.9,286047000.1,N
1635979415.7,286046999.8,N
1635979435.6,286046999.7,N
1635979455.4,286047001.4,N
1635979475.2,286047002.5,N
1635979495.1,286047002.6,N
1635979496.0,286047002.6,N
1635979515.8,286047002.3,N
1635979535.7,286046999.7,N
1635979555.5,286047002.8,N
1635979575.3,286047002.7,N
1635979595.2,286047000.2,N
1635979615.0,286047000.1,N
1635979615.9,286047000.1,N
1635979635.7,286047000.2,N
1635979655.6,286047000.0,N
1635979675.4,286047002.7,N
1635979695.3,286046999.8,N
1635979715.1,286046999.9,N
1635979716.0,286046999.9,N
1635979735.8,286047002.8,N
1635979755.7,286047000.6,N
1635979775.5,286047002.3,N
1635979795.3,286047002.4,N
1635979815.2,286047000.7,N
1635979835.0,286047000.2,N
1635979835.9,286047000.2,N
1635979855.8,286047000.6,N
1635979875.6,286047000.9,N
1635979895.4,286047000.0,N
1635979915.3,286047000.0,N
1635979935.1,286046999.9,N
1635979955.9,286047000.2,N
1635979975.7,286047000.2,N
1635979995.5,286047000.3,N
1635980015.4,286047001.1,N
1635980035.2,286047000.7,N
1635980055.0,286046999.9,N
1635980055.9,286046999.9,N
1635980075.8,286047000.1,N
1635980095.6,286047000.2,N
1635980115.5,286047002.8,Y
1635980135.3,286047000.1,P
1635980155.1,286047000.4,N
1635980175.9,286047002.4,P
1635980195.7,286047002.5,N
1635980215.5,286047002.0,N
1635980235.4,286047002.1,N
1635980255.2,286047002.2,N
1635980275.1,286046999.9,N
1635980276.0,286046999.9,N
1635980295.8,286047002.8,N
1635980315.6,286047002.4,N
1635980335.5,286047001.3,N
1635980355.3,286047001.9,N
1635980375.1,286047002.5,N
1635980395.9,286047001.3,N
